Year,Month,Day,Hour,Minute,Value (Times are PST for temperature in C)
2017,09,06,00,00,20.40
2017,09,06,00,01,20.40
2017,09,06,00,02,20.30
2017,09,06,00,03,20.30
2017,09,06,00,04,20.30
2017,09,06,00,05,20.30
2017,09,06,00,06,20.30
2017,09,06,00,07,20.30
2017,09,06,00,08,20.30
2017,09,06,00,09,20.30
2017,09,06,00,10,20.30
2017,09,06,00,11,20.30
2017,09,06,00,12,20.30
2017,09,06,00,13,20.30
2017,09,06,00,14,20.30
2017,09,06,00,15,20.30
2017,09,06,00,16,20.30
2017,09,06,00,17,20.30
2017,09,06,00,18,20.30
2017,09,06,00,19,20.30
2017,09,06,00,20,20.30
2017,09,06,00,21,20.30
2017,09,06,00,22,20.30
2017,09,06,00,23,20.20
2017,09,06,00,24,20.20
2017,09,06,00,25,20.10
2017,09,06,00,26,20.10
2017,09,06,00,27,20.00
2017,09,06,00,28,20.00
2017,09,06,00,29,19.90
2017,09,06,00,30,19.90
2017,09,06,00,31,19.90
2017,09,06,00,32,19.90
2017,09,06,00,33,19.90
2017,09,06,00,34,19.80
2017,09,06,00,35,19.80
2017,09,06,00,36,19.80
2017,09,06,00,37,19.80
2017,09,06,00,38,19.70
2017,09,06,00,39,19.70
2017,09,06,00,40,19.70
2017,09,06,00,41,19.60
2017,09,06,00,42,19.50
2017,09,06,00,43,19.50
2017,09,06,00,44,19.40
2017,09,06,00,45,19.40
2017,09,06,00,46,19.30
2017,09,06,00,47,19.30
2017,09,06,00,48,19.30
2017,09,06,00,49,19.30
2017,09,06,00,50,19.30
2017,09,06,00,51,19.20
2017,09,06,00,52,19.20
2017,09,06,00,53,19.20
2017,09,06,00,54,19.20
2017,09,06,00,55,19.20
2017,09,06,00,56,19.20
2017,09,06,00,57,19.20
2017,09,06,00,58,19.20
2017,09,06,00,59,19.20
2017,09,06,01,00,19.20
2017,09,06,01,01,19.20
2017,09,06,01,02,19.20
2017,09,06,01,03,19.20
2017,09,06,01,04,19.20
2017,09,06,01,05,19.20
2017,09,06,01,06,19.20
2017,09,06,01,07,19.20
2017,09,06,01,08,19.20
2017,09,06,01,09,19.20
2017,09,06,01,10,19.20
2017,09,06,01,11,19.20
2017,09,06,01,12,19.30
2017,09,06,01,13,19.30
2017,09,06,01,14,19.30
2017,09,06,01,15,19.20
2017,09,06,01,16,19.20
2017,09,06,01,17,19.20
2017,09,06,01,18,19.20
2017,09,06,01,19,19.20
2017,09,06,01,20,19.20
2017,09,06,01,21,19.20
2017,09,06,01,22,19.20
2017,09,06,01,23,19.10
2017,09,06,01,24,19.10
2017,09,06,01,25,19.10
2017,09,06,01,26,19.00
2017,09,06,01,27,19.00
2017,09,06,01,28,19.00
2017,09,06,01,29,19.00
2017,09,06,01,30,19.00
2017,09,06,01,31,19.10
2017,09,06,01,32,19.10
2017,09,06,01,33,19.20
2017,09,06,01,34,19.20
2017,09,06,01,35,19.30
2017,09,06,01,36,19.30
2017,09,06,01,37,19.30
2017,09,06,01,38,19.30
2017,09,06,01,39,19.40
2017,09,06,01,40,19.40
2017,09,06,01,41,19.40
2017,09,06,01,42,19.40
2017,09,06,01,43,19.40
2017,09,06,01,44,19.40
2017,09,06,01,45,19.50
2017,09,06,01,46,19.50
2017,09,06,01,47,19.50
2017,09,06,01,48,19.50
2017,09,06,01,49,19.60
2017,09,06,01,50,19.60
2017,09,06,01,51,19.60
2017,09,06,01,52,19.70
2017,09,06,01,53,19.70
2017,09,06,01,54,19.70
2017,09,06,01,55,19.80
2017,09,06,01,56,19.80
2017,09,06,01,57,19.90
2017,09,06,01,58,19.90
2017,09,06,01,59,19.90
2017,09,06,02,00,20.00
2017,09,06,02,01,20.00
2017,09,06,02,02,20.00
2017,09,06,02,03,20.10
2017,09,06,02,04,20.10
2017,09,06,02,05,20.10
2017,09,06,02,06,20.10
2017,09,06,02,07,20.20
2017,09,06,02,08,20.20
2017,09,06,02,09,20.20
2017,09,06,02,10,20.20
2017,09,06,02,11,20.20
2017,09,06,02,12,20.20
2017,09,06,02,13,20.20
2017,09,06,02,14,20.30
2017,09,06,02,15,20.40
2017,09,06,02,16,20.50
2017,09,06,02,17,20.50
2017,09,06,02,18,20.60
2017,09,06,02,19,20.60
2017,09,06,02,20,20.60
2017,09,06,02,21,20.60
2017,09,06,02,22,20.60
2017,09,06,02,23,20.70
2017,09,06,02,24,20.70
2017,09,06,02,25,20.70
2017,09,06,02,26,20.70
2017,09,06,02,27,20.70
2017,09,06,02,28,20.70
2017,09,06,02,29,20.70
2017,09,06,02,30,20.70
2017,09,06,02,31,20.70
2017,09,06,02,32,20.70
2017,09,06,02,33,20.70
2017,09,06,02,34,20.80
2017,09,06,02,35,20.80
2017,09,06,02,36,20.90
2017,09,06,02,37,20.90
2017,09,06,02,38,21.00
2017,09,06,02,39,21.00
2017,09,06,02,40,21.00
2017,09,06,02,41,21.00
2017,09,06,02,42,21.00
2017,09,06,02,43,21.00
2017,09,06,02,44,21.00
2017,09,06,02,45,21.00
2017,09,06,02,46,21.00
2017,09,06,02,47,20.90
2017,09,06,02,48,21.00
2017,09,06,02,49,21.00
2017,09,06,02,50,21.00
2017,09,06,02,51,21.00
2017,09,06,02,52,21.00
2017,09,06,02,53,20.90
2017,09,06,02,54,20.90
2017,09,06,02,55,20.90
2017,09,06,02,56,20.80
2017,09,06,02,57,20.80
2017,09,06,02,58,20.80
2017,09,06,02,59,20.70
2017,09,06,03,00,20.70
2017,09,06,03,01,20.70
2017,09,06,03,02,20.60
2017,09,06,03,03,20.60
2017,09,06,03,04,20.60
2017,09,06,03,05,20.60
2017,09,06,03,06,20.60
2017,09,06,03,07,20.50
2017,09,06,03,08,20.50
2017,09,06,03,09,20.50
2017,09,06,03,10,20.60
2017,09,06,03,11,20.60
2017,09,06,03,12,20.70
2017,09,06,03,13,20.70
2017,09,06,03,14,20.70
2017,09,06,03,15,20.70
2017,09,06,03,16,20.70
2017,09,06,03,17,20.80
2017,09,06,03,18,20.80
2017,09,06,03,19,20.90
2017,09,06,03,20,20.90
2017,09,06,03,21,21.00
2017,09,06,03,22,21.10
2017,09,06,03,23,21.10
2017,09,06,03,24,21.10
2017,09,06,03,25,21.10
2017,09,06,03,26,21.10
2017,09,06,03,27,21.00
2017,09,06,03,28,21.00
2017,09,06,03,29,20.90
2017,09,06,03,30,20.80
2017,09,06,03,31,20.80
2017,09,06,03,32,20.70
2017,09,06,03,33,20.70
2017,09,06,03,34,20.60
2017,09,06,03,35,20.60
2017,09,06,03,36,20.60
2017,09,06,03,37,20.50
2017,09,06,03,38,20.50
2017,09,06,03,39,20.50
2017,09,06,03,40,20.50
2017,09,06,03,41,20.40
2017,09,06,03,42,20.40
2017,09,06,03,43,20.40
2017,09,06,03,44,20.40
2017,09,06,03,45,20.40
2017,09,06,03,46,20.40
2017,09,06,03,47,20.40
2017,09,06,03,48,20.40
2017,09,06,03,49,20.40
2017,09,06,03,50,20.40
2017,09,06,03,51,20.40
2017,09,06,03,52,20.40
2017,09,06,03,53,20.30
2017,09,06,03,54,20.30
2017,09,06,03,55,20.30
2017,09,06,03,56,20.30
2017,09,06,03,57,20.30
2017,09,06,03,58,20.20
2017,09,06,03,59,20.20
2017,09,06,04,00,20.20
2017,09,06,04,01,20.20
2017,09,06,04,02,20.20
2017,09,06,04,03,20.20
2017,09,06,04,04,20.10
2017,09,06,04,05,20.10
2017,09,06,04,06,20.10
2017,09,06,04,07,20.00
2017,09,06,04,08,20.00
2017,09,06,04,09,20.00
2017,09,06,04,10,20.00
2017,09,06,04,11,20.00
2017,09,06,04,12,20.00
2017,09,06,04,13,20.10
2017,09,06,04,14,20.10
2017,09,06,04,15,20.10
2017,09,06,04,16,20.10
2017,09,06,04,17,20.10
2017,09,06,04,18,20.10
2017,09,06,04,19,20.10
2017,09,06,04,20,20.10
2017,09,06,04,21,20.10
2017,09,06,04,22,20.10
2017,09,06,04,23,20.10
2017,09,06,04,24,20.10
2017,09,06,04,25,20.00
2017,09,06,04,26,20.00
2017,09,06,04,27,20.00
2017,09,06,04,28,19.90
2017,09,06,04,29,19.90
2017,09,06,04,30,19.80
2017,09,06,04,31,19.80
2017,09,06,04,32,19.80
2017,09,06,04,33,19.80
2017,09,06,04,34,19.80
2017,09,06,04,35,19.80
2017,09,06,04,36,19.80
2017,09,06,04,37,19.80
2017,09,06,04,38,19.80
2017,09,06,04,39,19.70
2017,09,06,04,40,19.70
2017,09,06,04,41,19.70
2017,09,06,04,42,19.70
2017,09,06,04,43,19.70
2017,09,06,04,44,19.70
2017,09,06,04,45,19.60
2017,09,06,04,46,19.60
2017,09,06,04,47,19.60
2017,09,06,04,48,19.60
2017,09,06,04,49,19.60
2017,09,06,04,50,19.50
2017,09,06,04,51,19.50
2017,09,06,04,52,19.50
2017,09,06,04,53,19.50
2017,09,06,04,54,19.50
2017,09,06,04,55,19.40
2017,09,06,04,56,19.50
2017,09,06,04,57,19.50
2017,09,06,04,58,19.50
2017,09,06,04,59,19.50
2017,09,06,05,00,19.50
2017,09,06,05,01,19.60
2017,09,06,05,02,19.60
2017,09,06,05,03,19.60
2017,09,06,05,04,19.60
2017,09,06,05,05,19.60
2017,09,06,05,06,19.50
2017,09,06,05,07,19.50
2017,09,06,05,08,19.50
2017,09,06,05,09,19.50
2017,09,06,05,10,19.60
2017,09,06,05,11,19.60
2017,09,06,05,12,19.60
2017,09,06,05,13,19.60
2017,09,06,05,14,19.60
2017,09,06,05,15,19.70
2017,09,06,05,16,19.60
2017,09,06,05,17,19.60
2017,09,06,05,18,19.60
2017,09,06,05,19,19.60
2017,09,06,05,20,19.50
2017,09,06,05,21,19.50
2017,09,06,05,22,19.40
2017,09,06,05,23,19.40
2017,09,06,05,24,19.40
2017,09,06,05,25,19.30
2017,09,06,05,26,19.30
2017,09,06,05,27,19.30
2017,09,06,05,28,19.20
2017,09,06,05,29,19.20
2017,09,06,05,30,19.10
2017,09,06,05,31,19.10
2017,09,06,05,32,19.10
2017,09,06,05,33,19.10
2017,09,06,05,34,19.10
2017,09,06,05,35,19.00
2017,09,06,05,36,19.00
2017,09,06,05,37,19.00
2017,09,06,05,38,19.10
2017,09,06,05,39,19.10
2017,09,06,05,40,19.10
2017,09,06,05,41,19.10
2017,09,06,05,42,19.10
2017,09,06,05,43,19.10
2017,09,06,05,44,19.10
2017,09,06,05,45,19.00
2017,09,06,05,46,19.00
2017,09,06,05,47,19.00
2017,09,06,05,48,18.90
2017,09,06,05,49,18.90
2017,09,06,05,50,18.80
2017,09,06,05,51,18.80
2017,09,06,05,52,18.80
2017,09,06,05,53,18.80
2017,09,06,05,54,18.70
2017,09,06,05,55,18.70
2017,09,06,05,56,18.70
2017,09,06,05,57,18.70
2017,09,06,05,58,18.70
2017,09,06,05,59,18.70
2017,09,06,06,00,18.70
2017,09,06,06,01,18.80
2017,09,06,06,02,18.80
2017,09,06,06,03,18.80
2017,09,06,06,04,18.90
2017,09,06,06,05,18.90
2017,09,06,06,06,18.90
2017,09,06,06,07,18.90
2017,09,06,06,08,18.90
2017,09,06,06,09,18.90
2017,09,06,06,10,18.90
2017,09,06,06,11,18.90
2017,09,06,06,12,18.80
2017,09,06,06,13,18.80
2017,09,06,06,14,18.80
2017,09,06,06,15,18.80
2017,09,06,06,16,18.80
2017,09,06,06,17,18.80
2017,09,06,06,18,18.90
2017,09,06,06,19,18.90
2017,09,06,06,20,18.90
2017,09,06,06,21,18.90
2017,09,06,06,22,19.00
2017,09,06,06,23,19.00
2017,09,06,06,24,19.10
2017,09,06,06,25,19.20
2017,09,06,06,26,19.30
2017,09,06,06,27,19.30
2017,09,06,06,28,19.40
2017,09,06,06,29,19.50
2017,09,06,06,30,19.50
2017,09,06,06,31,19.60
2017,09,06,06,32,19.70
2017,09,06,06,33,19.70
2017,09,06,06,34,19.70
2017,09,06,06,35,19.80
2017,09,06,06,36,19.80
2017,09,06,06,37,19.70
2017,09,06,06,38,19.70
2017,09,06,06,39,19.70
2017,09,06,06,40,19.70
2017,09,06,06,41,19.70
2017,09,06,06,42,19.70
2017,09,06,06,43,19.70
2017,09,06,06,44,19.80
2017,09,06,06,45,19.80
2017,09,06,06,46,19.90
2017,09,06,06,47,19.90
2017,09,06,06,48,20.00
2017,09,06,06,49,20.00
2017,09,06,06,50,20.10
2017,09,06,06,51,20.10
2017,09,06,06,52,20.10
2017,09,06,06,53,20.00
2017,09,06,06,54,19.90
2017,09,06,06,55,19.90
2017,09,06,06,56,19.90
2017,09,06,06,57,19.90
2017,09,06,06,58,19.90
2017,09,06,06,59,19.90
2017,09,06,07,00,19.90
2017,09,06,07,01,19.90
2017,09,06,07,02,19.90
2017,09,06,07,03,19.80
2017,09,06,07,04,19.80
2017,09,06,07,05,19.70
2017,09,06,07,06,19.60
2017,09,06,07,07,19.50
2017,09,06,07,08,19.50
2017,09,06,07,09,19.40
2017,09,06,07,10,19.30
2017,09,06,07,11,19.20
2017,09,06,07,12,19.20
2017,09,06,07,13,19.10
2017,09,06,07,14,19.10
2017,09,06,07,15,19.00
2017,09,06,07,16,19.00
2017,09,06,07,17,18.90
2017,09,06,07,18,18.90
2017,09,06,07,19,18.90
2017,09,06,07,20,18.80
2017,09,06,07,21,18.80
2017,09,06,07,22,18.80
2017,09,06,07,23,18.90
2017,09,06,07,24,18.90
2017,09,06,07,25,18.90
2017,09,06,07,26,18.90
2017,09,06,07,27,18.90
2017,09,06,07,28,18.90
2017,09,06,07,29,18.80
2017,09,06,07,30,18.80
2017,09,06,07,31,18.90
2017,09,06,07,32,18.90
2017,09,06,07,33,18.80
2017,09,06,07,34,18.80
2017,09,06,07,35,18.80
2017,09,06,07,36,18.80
2017,09,06,07,37,18.80
2017,09,06,07,38,18.80
2017,09,06,07,39,18.80
2017,09,06,07,40,18.80
2017,09,06,07,41,18.80
2017,09,06,07,42,18.80
2017,09,06,07,43,18.80
2017,09,06,07,44,18.80
2017,09,06,07,45,18.80
2017,09,06,07,46,18.80
2017,09,06,07,47,18.90
2017,09,06,07,48,18.90
2017,09,06,07,49,18.90
2017,09,06,07,50,18.90
2017,09,06,07,51,18.90
2017,09,06,07,52,19.00
2017,09,06,07,53,19.10
2017,09,06,07,54,19.10
2017,09,06,07,55,19.10
2017,09,06,07,56,19.20
2017,09,06,07,57,19.20
2017,09,06,07,58,19.20
2017,09,06,07,59,19.20
2017,09,06,08,00,19.20
2017,09,06,08,01,19.30
2017,09,06,08,02,19.30
2017,09,06,08,03,19.30
2017,09,06,08,04,19.30
2017,09,06,08,05,19.30
2017,09,06,08,06,19.30
2017,09,06,08,07,19.40
2017,09,06,08,08,19.40
2017,09,06,08,09,19.40
2017,09,06,08,10,19.40
2017,09,06,08,11,19.40
2017,09,06,08,12,19.40
2017,09,06,08,13,19.40
2017,09,06,08,14,19.50
2017,09,06,08,15,19.50
2017,09,06,08,16,19.50
2017,09,06,08,17,19.50
2017,09,06,08,18,19.50
2017,09,06,08,19,19.60
2017,09,06,08,20,19.60
2017,09,06,08,21,19.60
2017,09,06,08,22,19.60
2017,09,06,08,23,19.60
2017,09,06,08,24,19.70
2017,09,06,08,25,19.70
2017,09,06,08,26,19.70
2017,09,06,08,27,19.70
2017,09,06,08,28,19.80
2017,09,06,08,29,19.80
2017,09,06,08,30,19.80
2017,09,06,08,31,19.90
2017,09,06,08,32,19.90
2017,09,06,08,33,19.90
2017,09,06,08,34,19.90
2017,09,06,08,35,19.90
2017,09,06,08,36,20.00
2017,09,06,08,37,20.00
2017,09,06,08,38,20.10
2017,09,06,08,39,20.10
2017,09,06,08,40,20.10
2017,09,06,08,41,20.20
2017,09,06,08,42,20.20
2017,09,06,08,43,20.30
2017,09,06,08,44,20.30
2017,09,06,08,45,20.40
2017,09,06,08,46,20.40
2017,09,06,08,47,20.50
2017,09,06,08,48,20.50
2017,09,06,08,49,20.60
2017,09,06,08,50,20.60
2017,09,06,08,51,20.70
2017,09,06,08,52,20.70
2017,09,06,08,53,20.80
2017,09,06,08,54,20.80
2017,09,06,08,55,20.80
2017,09,06,08,56,20.90
2017,09,06,08,57,20.90
2017,09,06,08,58,21.00
2017,09,06,08,59,21.00
2017,09,06,09,00,21.10
2017,09,06,09,01,21.10
2017,09,06,09,02,21.20
2017,09,06,09,03,21.20
2017,09,06,09,04,21.20
2017,09,06,09,05,21.30
2017,09,06,09,06,21.40
2017,09,06,09,07,21.40
2017,09,06,09,08,21.50
2017,09,06,09,09,21.60
2017,09,06,09,10,21.60
2017,09,06,09,11,21.70
2017,09,06,09,12,21.70
2017,09,06,09,13,21.80
2017,09,06,09,14,21.80
2017,09,06,09,15,21.80
2017,09,06,09,16,21.90
2017,09,06,09,17,21.90
2017,09,06,09,18,21.90
2017,09,06,09,19,22.00
2017,09,06,09,20,22.00
2017,09,06,09,21,22.10
2017,09,06,09,22,22.10
2017,09,06,09,23,22.10
2017,09,06,09,24,22.20
2017,09,06,09,25,22.20
2017,09,06,09,26,22.20
2017,09,06,09,27,22.30
2017,09,06,09,28,22.30
2017,09,06,09,29,22.40
2017,09,06,09,30,22.40
2017,09,06,09,31,22.50
2017,09,06,09,32,22.50
2017,09,06,09,33,22.60
2017,09,06,09,34,22.60
2017,09,06,09,35,22.60
2017,09,06,09,36,22.70
2017,09,06,09,37,22.70
2017,09,06,09,38,22.80
2017,09,06,09,39,22.80
2017,09,06,09,40,22.90
2017,09,06,09,41,22.90
2017,09,06,09,42,22.90
2017,09,06,09,43,23.00
2017,09,06,09,44,23.10
2017,09,06,09,45,23.10
2017,09,06,09,46,23.10
2017,09,06,09,47,23.10
2017,09,06,09,48,23.20
2017,09,06,09,49,23.20
2017,09,06,09,50,23.20
2017,09,06,09,51,23.20
2017,09,06,09,52,23.30
2017,09,06,09,53,23.30
2017,09,06,09,54,23.40
2017,09,06,09,55,23.40
2017,09,06,09,56,23.40
2017,09,06,09,57,23.40
2017,09,06,09,58,23.40
2017,09,06,09,59,23.40
2017,09,06,10,00,23.40
2017,09,06,10,01,23.50
2017,09,06,10,02,23.50
2017,09,06,10,03,23.50
2017,09,06,10,04,23.60
2017,09,06,10,05,23.60
2017,09,06,10,06,23.60
2017,09,06,10,07,23.70
2017,09,06,10,08,23.70
2017,09,06,10,09,23.80
2017,09,06,10,10,23.80
2017,09,06,10,11,23.90
2017,09,06,10,12,23.90
2017,09,06,10,13,24.00
2017,09,06,10,14,24.00
2017,09,06,10,15,24.10
2017,09,06,10,16,24.10
2017,09,06,10,17,24.20
2017,09,06,10,18,24.30
2017,09,06,10,19,24.30
2017,09,06,10,20,24.30
2017,09,06,10,21,24.30
2017,09,06,10,22,24.40
2017,09,06,10,23,24.40
2017,09,06,10,24,24.40
2017,09,06,10,25,24.40
2017,09,06,10,26,24.40
2017,09,06,10,27,24.40
2017,09,06,10,28,24.40
2017,09,06,10,29,24.50
2017,09,06,10,30,24.50
2017,09,06,10,31,24.60
2017,09,06,10,32,24.60
2017,09,06,10,33,24.70
2017,09,06,10,34,24.80
2017,09,06,10,35,24.80
2017,09,06,10,36,24.90
2017,09,06,10,37,25.00
2017,09,06,10,38,25.10
2017,09,06,10,39,25.20
2017,09,06,10,40,25.30
2017,09,06,10,41,25.30
2017,09,06,10,42,25.40
2017,09,06,10,43,25.40
2017,09,06,10,44,25.40
2017,09,06,10,45,25.40
2017,09,06,10,46,25.50
2017,09,06,10,47,25.50
2017,09,06,10,48,25.50
2017,09,06,10,49,25.50
2017,09,06,10,50,25.50
2017,09,06,10,51,25.50
2017,09,06,10,52,25.40
2017,09,06,10,53,25.30
2017,09,06,10,54,25.20
2017,09,06,10,55,25.20
2017,09,06,10,56,25.20
2017,09,06,10,57,25.10
2017,09,06,10,58,25.20
2017,09,06,10,59,25.20
2017,09,06,11,00,25.10
2017,09,06,11,01,25.10
2017,09,06,11,02,25.10
2017,09,06,11,03,25.10
2017,09,06,11,04,25.10
2017,09,06,11,05,25.10
2017,09,06,11,06,25.00
2017,09,06,11,07,25.00
2017,09,06,11,08,24.90
2017,09,06,11,09,24.90
2017,09,06,11,10,24.90
2017,09,06,11,11,24.90
2017,09,06,11,12,24.90
2017,09,06,11,13,24.90
2017,09,06,11,14,24.80
2017,09,06,11,15,24.80
2017,09,06,11,16,24.70
2017,09,06,11,17,24.60
2017,09,06,11,18,24.50
2017,09,06,11,19,24.40
2017,09,06,11,20,24.30
2017,09,06,11,21,24.30
2017,09,06,11,22,24.30
2017,09,06,11,23,24.30
2017,09,06,11,24,24.30
2017,09,06,11,25,24.30
2017,09,06,11,26,24.30
2017,09,06,11,27,24.40
2017,09,06,11,28,24.50
2017,09,06,11,29,24.60
2017,09,06,11,30,24.60
2017,09,06,11,31,24.60
2017,09,06,11,32,24.70
2017,09,06,11,33,24.70
2017,09,06,11,34,24.80
2017,09,06,11,35,24.90
2017,09,06,11,36,24.90
2017,09,06,11,37,24.90
2017,09,06,11,38,25.00
2017,09,06,11,39,25.00
2017,09,06,11,40,25.10
2017,09,06,11,41,25.20
2017,09,06,11,42,25.30
2017,09,06,11,43,25.40
2017,09,06,11,44,25.40
2017,09,06,11,45,25.40
2017,09,06,11,46,25.40
2017,09,06,11,47,25.40
2017,09,06,11,48,25.30
2017,09,06,11,49,25.30
2017,09,06,11,50,25.20
2017,09,06,11,51,25.20
2017,09,06,11,52,25.20
2017,09,06,11,53,25.20
2017,09,06,11,54,25.20
2017,09,06,11,55,25.20
2017,09,06,11,56,25.10
2017,09,06,11,57,25.10
2017,09,06,11,58,25.10
2017,09,06,11,59,25.00
2017,09,06,12,00,25.00
2017,09,06,12,01,25.00
2017,09,06,12,02,25.00
2017,09,06,12,03,25.00
2017,09,06,12,04,24.90
2017,09,06,12,05,24.80
2017,09,06,12,06,24.70
2017,09,06,12,07,24.70
2017,09,06,12,08,24.60
2017,09,06,12,09,24.60
2017,09,06,12,10,24.60
2017,09,06,12,11,24.60
2017,09,06,12,12,24.50
2017,09,06,12,13,24.50
2017,09,06,12,14,24.40
2017,09,06,12,15,24.30
2017,09,06,12,16,24.30
2017,09,06,12,17,24.30
2017,09,06,12,18,24.30
2017,09,06,12,19,24.30
2017,09,06,12,20,24.30
2017,09,06,12,21,24.30
2017,09,06,12,22,24.30
2017,09,06,12,23,24.30
2017,09,06,12,24,24.30
2017,09,06,12,25,24.30
2017,09,06,12,26,24.40
2017,09,06,12,27,24.50
2017,09,06,12,28,24.60
2017,09,06,12,29,24.70
2017,09,06,12,30,24.80
2017,09,06,12,31,24.80
2017,09,06,12,32,24.90
2017,09,06,12,33,24.90
2017,09,06,12,34,25.00
2017,09,06,12,35,24.90
2017,09,06,12,36,24.90
2017,09,06,12,37,24.90
2017,09,06,12,38,25.00
2017,09,06,12,39,25.00
2017,09,06,12,40,25.10
2017,09,06,12,41,25.20
2017,09,06,12,42,25.30
2017,09,06,12,43,25.30
2017,09,06,12,44,25.30
2017,09,06,12,45,25.30
2017,09,06,12,46,25.30
2017,09,06,12,47,25.40
2017,09,06,12,48,25.50
2017,09,06,12,49,25.50
2017,09,06,12,50,25.40
2017,09,06,12,51,25.40
2017,09,06,12,52,25.40
2017,09,06,12,53,25.40
2017,09,06,12,54,25.30
2017,09,06,12,55,25.20
2017,09,06,12,56,25.10
2017,09,06,12,57,25.00
2017,09,06,12,58,24.90
2017,09,06,12,59,24.80
2017,09,06,13,00,24.80
2017,09,06,13,01,24.70
2017,09,06,13,02,24.60
2017,09,06,13,03,24.50
2017,09,06,13,04,24.40
2017,09,06,13,05,24.30
2017,09,06,13,06,24.20
2017,09,06,13,07,24.20
2017,09,06,13,08,24.20
2017,09,06,13,09,24.10
2017,09,06,13,10,24.10
2017,09,06,13,11,24.10
2017,09,06,13,12,24.10
2017,09,06,13,13,24.00
2017,09,06,13,14,23.90
2017,09,06,13,15,23.70
2017,09,06,13,16,23.50
2017,09,06,13,17,23.40
2017,09,06,13,18,23.30
2017,09,06,13,19,23.30
2017,09,06,13,20,23.20
2017,09,06,13,21,23.10
2017,09,06,13,22,23.10
2017,09,06,13,23,23.10
2017,09,06,13,24,23.10
2017,09,06,13,25,23.00
2017,09,06,13,26,23.00
2017,09,06,13,27,23.00
2017,09,06,13,28,23.00
2017,09,06,13,29,23.00
2017,09,06,13,30,23.10
2017,09,06,13,31,23.10
2017,09,06,13,32,23.10
2017,09,06,13,33,23.10
2017,09,06,13,34,23.10
2017,09,06,13,35,23.20
2017,09,06,13,36,23.20
2017,09,06,13,37,23.20
2017,09,06,13,38,23.20
2017,09,06,13,39,23.20
2017,09,06,13,40,23.20
2017,09,06,13,41,23.20
2017,09,06,13,42,23.10
2017,09,06,13,43,23.10
2017,09,06,13,44,23.10
2017,09,06,13,45,23.10
2017,09,06,13,46,23.20
2017,09,06,13,47,23.20
2017,09,06,13,48,23.30
2017,09,06,13,49,23.40
2017,09,06,13,50,23.40
2017,09,06,13,51,23.40
2017,09,06,13,52,23.40
2017,09,06,13,53,23.40
2017,09,06,13,54,23.40
2017,09,06,13,55,23.40
2017,09,06,13,56,23.40
2017,09,06,13,57,23.50
2017,09,06,13,58,23.50
2017,09,06,13,59,23.50
2017,09,06,14,00,23.50
2017,09,06,14,01,23.50
2017,09,06,14,02,23.40
2017,09,06,14,03,23.40
2017,09,06,14,04,23.40
2017,09,06,14,05,23.40
2017,09,06,14,06,23.40
2017,09,06,14,07,23.40
2017,09,06,14,08,23.30
2017,09,06,14,09,23.30
2017,09,06,14,10,23.30
2017,09,06,14,11,23.30
2017,09,06,14,12,23.30
2017,09,06,14,13,23.30
2017,09,06,14,14,23.30
2017,09,06,14,15,23.30
2017,09,06,14,16,23.30
2017,09,06,14,17,23.30
2017,09,06,14,18,23.40
2017,09,06,14,19,23.40
2017,09,06,14,20,23.30
2017,09,06,14,21,23.30
2017,09,06,14,22,23.30
2017,09,06,14,23,23.40
2017,09,06,14,24,23.40
2017,09,06,14,25,23.30
2017,09,06,14,26,23.30
2017,09,06,14,27,23.40
2017,09,06,14,28,23.40
2017,09,06,14,29,23.50
2017,09,06,14,30,23.50
2017,09,06,14,31,23.60
2017,09,06,14,32,23.60
2017,09,06,14,33,23.70
2017,09,06,14,34,23.70
2017,09,06,14,35,23.70
2017,09,06,14,36,23.70
2017,09,06,14,37,23.70
2017,09,06,14,38,23.80
2017,09,06,14,39,23.80
2017,09,06,14,40,23.80
2017,09,06,14,41,23.80
2017,09,06,14,42,23.80
2017,09,06,14,43,23.80
2017,09,06,14,44,23.80
2017,09,06,14,45,23.80
2017,09,06,14,46,23.80
2017,09,06,14,47,23.90
2017,09,06,14,48,23.90
2017,09,06,14,49,23.90
2017,09,06,14,50,23.90
2017,09,06,14,51,23.90
2017,09,06,14,52,23.90
2017,09,06,14,53,23.90
2017,09,06,14,54,24.00
2017,09,06,14,55,24.00
2017,09,06,14,56,23.90
2017,09,06,14,57,23.90
2017,09,06,14,58,23.90
2017,09,06,14,59,23.90
2017,09,06,15,00,23.90
2017,09,06,15,01,23.80
2017,09,06,15,02,23.80
2017,09,06,15,03,23.90
2017,09,06,15,04,23.90
2017,09,06,15,05,23.90
2017,09,06,15,06,23.90
2017,09,06,15,07,24.00
2017,09,06,15,08,24.00
2017,09,06,15,09,24.10
2017,09,06,15,10,24.10
2017,09,06,15,11,24.20
2017,09,06,15,12,24.20
2017,09,06,15,13,24.30
2017,09,06,15,14,24.40
2017,09,06,15,15,24.50
2017,09,06,15,16,24.50
2017,09,06,15,17,24.60
2017,09,06,15,18,24.60
2017,09,06,15,19,24.70
2017,09,06,15,20,24.80
2017,09,06,15,21,24.90
2017,09,06,15,22,24.90
2017,09,06,15,23,24.90
2017,09,06,15,24,24.90
2017,09,06,15,25,24.80
2017,09,06,15,26,24.80
2017,09,06,15,27,24.80
2017,09,06,15,28,24.80
2017,09,06,15,29,24.80
2017,09,06,15,30,24.80
2017,09,06,15,31,24.80
2017,09,06,15,32,24.80
2017,09,06,15,33,24.80
2017,09,06,15,34,24.80
2017,09,06,15,35,24.80
2017,09,06,15,36,24.70
2017,09,06,15,37,24.60
2017,09,06,15,38,24.60
2017,09,06,15,39,24.50
2017,09,06,15,40,24.40
2017,09,06,15,41,24.40
2017,09,06,15,42,24.30
2017,09,06,15,43,24.20
2017,09,06,15,44,24.20
2017,09,06,15,45,24.10
2017,09,06,15,46,24.00
2017,09,06,15,47,24.00
2017,09,06,15,48,23.90
2017,09,06,15,49,23.90
2017,09,06,15,50,23.80
2017,09,06,15,51,23.80
2017,09,06,15,52,23.70
2017,09,06,15,53,23.70
2017,09,06,15,54,23.70
2017,09,06,15,55,23.60
2017,09,06,15,56,23.60
2017,09,06,15,57,23.60
2017,09,06,15,58,23.60
2017,09,06,15,59,23.60
2017,09,06,16,00,23.60
2017,09,06,16,01,23.60
2017,09,06,16,02,23.60
2017,09,06,16,03,23.60
2017,09,06,16,04,23.60
2017,09,06,16,05,23.60
2017,09,06,16,06,23.60
2017,09,06,16,07,23.60
2017,09,06,16,08,23.60
2017,09,06,16,09,23.60
2017,09,06,16,10,23.50
2017,09,06,16,11,23.50
2017,09,06,16,12,23.50
2017,09,06,16,13,23.50
2017,09,06,16,14,23.50
2017,09,06,16,15,23.40
2017,09,06,16,16,23.50
2017,09,06,16,17,23.50
2017,09,06,16,18,23.50
2017,09,06,16,19,23.60
2017,09,06,16,20,23.60
2017,09,06,16,21,23.70
2017,09,06,16,22,23.70
2017,09,06,16,23,23.80
2017,09,06,16,24,23.90
2017,09,06,16,25,23.90
2017,09,06,16,26,24.00
2017,09,06,16,27,24.00
2017,09,06,16,28,24.10
2017,09,06,16,29,24.20
2017,09,06,16,30,24.20
2017,09,06,16,31,24.30
2017,09,06,16,32,24.30
2017,09,06,16,33,24.40
2017,09,06,16,34,24.40
2017,09,06,16,35,24.50
2017,09,06,16,36,24.50
2017,09,06,16,37,24.50
2017,09,06,16,38,24.60
2017,09,06,16,39,24.60
2017,09,06,16,40,24.60
2017,09,06,16,41,24.70
2017,09,06,16,42,24.70
2017,09,06,16,43,24.80
2017,09,06,16,44,24.80
2017,09,06,16,45,24.80
2017,09,06,16,46,24.80
2017,09,06,16,47,24.80
2017,09,06,16,48,24.80
2017,09,06,16,49,24.80
2017,09,06,16,50,24.80
2017,09,06,16,51,24.80
2017,09,06,16,52,24.80
2017,09,06,16,53,24.80
2017,09,06,16,54,24.70
2017,09,06,16,55,24.70
2017,09,06,16,56,24.60
2017,09,06,16,57,24.60
2017,09,06,16,58,24.50
2017,09,06,16,59,24.50
2017,09,06,17,00,24.50
2017,09,06,17,01,24.40
2017,09,06,17,02,24.40
2017,09,06,17,03,24.30
2017,09,06,17,04,24.30
2017,09,06,17,05,24.20
2017,09,06,17,06,24.20
2017,09,06,17,07,24.20
2017,09,06,17,08,24.10
2017,09,06,17,09,24.10
2017,09,06,17,10,24.10
2017,09,06,17,11,24.00
2017,09,06,17,12,24.00
2017,09,06,17,13,24.00
2017,09,06,17,14,23.90
2017,09,06,17,15,23.90
2017,09,06,17,16,23.80
2017,09,06,17,17,23.80
2017,09,06,17,18,23.80
2017,09,06,17,19,23.80